Change the Weather History Date:

Monday, August 19, 2013

  Actual Average Record
Temperature  
Mean Temperature 66 °F -  
Max Temperature 84 °F 80 °F 97 °F (1955)
Min Temperature 49 °F 55 °F 39 °F (1998)
Cooling Degree Days 2    
Growing Degree Days 16 (Base 50)    
Moisture  
Dew Point 53 °F    
Average Humidity 66    
Maximum Humidity 97    
Minimum Humidity 32    
Precipitation  
Precipitation 0.00 in - - ()
Sea Level Pressure  
Sea Level Pressure 30.10 in    
Wind  
Wind Speed 2 mph (WSW)    
Max Wind Speed 13 mph    
Max Gust Speed 18 mph    
Visibility 8 miles    
Events Fog    
Averages and records for this station are not official NWS values.
T = Trace of Precipitation, MM = Missing Value Source: NWS Daily Summary

Daily Weather History Graph

Daily Weather History Graph

Search for Another Location

Airport or City:

Trip Planner

Search our weather history database for the weather conditions in past years. The results will help you decide how hot, cold, wet, or windy it might be!

Date:

Astronomy

Aug. 19, 2013 Rise Set
Actual Time 6:48 AM EDT 8:35 PM EDT
Civil Twilight 6:18 AM EDT 9:05 PM EDT
Nautical Twilight 5:41 AM EDT 9:42 PM EDT
Astronomical Twilight 5:01 AM EDT 10:22 PM EDT
Moon 7:25 PM EDT (8/19) 5:05 AM EDT (8/19)
Length of Visible Light 14h 47m
Length of Day
13h 46m
Waxing Gibbous, 97% of the Moon is Illuminated
Aug 19
Waxing Gibbous
Aug 20
Full
Aug 28
Last Quarter
Sep 5
New
Sep 12
First Quarter

Hourly Weather History & Observations

Time (EDT) Temp. Heat Index Dew Point Humidity Pressure Visibility Wind Dir Wind Speed Gust Speed Precip Events Conditions
12:11 AM 55.9 °F - 53.6 °F 92% 30.14 in 10.0 mi Calm Calm - N/A   Clear
12:31 AM 56.1 °F - 53.6 °F 91% 30.13 in 10.0 mi Calm Calm - N/A   Clear
12:51 AM 54.9 °F - 52.3 °F 91% 30.13 in 7.0 mi Calm Calm - N/A   Clear
1:11 AM 56.3 °F - 54.1 °F 92% 30.13 in 10.0 mi Calm Calm - N/A   Clear
1:26 AM 56.3 °F - 54.1 °F 92% 30.13 in 7.0 mi Calm Calm - N/A   Clear
1:48 AM 54.9 °F - 53.2 °F 94% 30.12 in 7.0 mi Calm Calm - N/A   Clear
2:08 AM 53.8 °F - 52.2 °F 94% 30.12 in 7.0 mi Calm Calm - N/A   Clear
2:29 AM 53.6 °F - 52.2 °F 95% 30.12 in 5.0 mi Calm Calm - N/A   Clear
2:49 AM 53.2 °F - 52.0 °F 95% 30.12 in 5.0 mi Calm Calm - N/A   Clear
3:09 AM 52.5 °F - 51.3 °F 95% 30.12 in 2.5 mi Calm Calm - N/A   Clear
3:29 AM 53.1 °F - 52.0 °F 96% 30.12 in 0.5 mi Calm Calm - N/A Fog Fog
3:49 AM 52.3 °F - 51.3 °F 96% 30.11 in 3.0 mi Calm Calm - N/A   Clear
4:09 AM 54.9 °F - 54.0 °F 97% 30.12 in 5.0 mi SSE 3.5 mph - N/A   Clear
4:29 AM 54.1 °F - 52.9 °F 95% 30.11 in 5.0 mi Calm Calm - N/A   Clear
4:49 AM 53.4 °F - 52.3 °F 96% 30.12 in 5.0 mi Calm Calm - N/A   Clear
5:09 AM 51.6 °F - 50.5 °F 96% 30.12 in 0.8 mi Calm Calm - N/A   Mist
5:32 AM 50.9 °F - 49.8 °F 96% 30.12 in 3.0 mi WNW 3.5 mph - N/A   Clear
5:52 AM 52.3 °F - 51.4 °F 97% 30.12 in 3.0 mi Calm Calm - N/A   Clear
6:12 AM 50.9 °F - 49.6 °F 95% 30.12 in 3.0 mi Calm Calm - N/A   Clear
6:32 AM 50.9 °F - 49.6 °F 95% 30.13 in 0.8 mi Calm Calm - N/A   Mist
6:52 AM 49.6 °F - 48.6 °F 96% 30.14 in 0.2 mi Calm Calm - N/A Fog Fog
7:12 AM 50.2 °F - 49.1 °F 96% 30.14 in 2.5 mi Calm Calm - N/A   Scattered Clouds
7:32 AM 51.3 °F - 50.2 °F 96% 30.14 in 2.5 mi Calm Calm - N/A   Clear
7:53 AM 54.5 °F - 53.4 °F 96% 30.14 in 5.0 mi Calm Calm - N/A   Clear
8:13 AM 57.2 °F - 55.8 °F 95% 30.14 in 5.0 mi Calm Calm - N/A   Clear
8:33 AM 60.3 °F - 57.6 °F 91% 30.13 in 7.0 mi Calm Calm - N/A   Clear
8:48 AM 62.6 °F - 58.5 °F 86% 30.13 in 7.0 mi Calm Calm - N/A   Clear
9:10 AM 66.4 °F - 59.2 °F 78% 30.13 in 10.0 mi Calm Calm - N/A   Clear
9:30 AM 69.4 °F - 58.3 °F 68% 30.13 in 10.0 mi Calm Calm - N/A   Clear
9:50 AM 71.6 °F - 58.5 °F 63% 30.13 in 10.0 mi SW 3.5 mph - N/A   Clear
10:10 AM 73.8 °F - 56.5 °F 55% 30.13 in 10.0 mi WSW 4.6 mph - N/A   Clear
10:31 AM 74.7 °F - 52.5 °F 46% 30.12 in 10.0 mi West 8.1 mph - N/A   Clear
10:51 AM 75.4 °F - 51.1 °F 42% 30.12 in 10.0 mi NW 3.5 mph - N/A   Clear
11:11 AM 77.0 °F - 51.8 °F 41% 30.12 in 10.0 mi Calm Calm - N/A   Clear
11:31 AM 78.3 °F - 52.5 °F 41% 30.12 in 10.0 mi West 3.5 mph - N/A   Clear
11:51 AM 79.5 °F - 53.1 °F 40% 30.12 in 10.0 mi WNW 9.2 mph - N/A   Clear
12:11 PM 79.7 °F - 52.7 °F 39% 30.12 in 10.0 mi West 5.8 mph - N/A   Clear
12:31 PM 80.6 °F - 52.3 °F 37% 30.12 in 10.0 mi WNW 6.9 mph - N/A   Scattered Clouds
12:46 PM 80.2 °F - 52.7 °F 38% 30.11 in 10.0 mi West 6.9 mph - N/A   Clear
1:09 PM 81.1 °F - 52.5 °F 37% 30.11 in 10.0 mi West 6.9 mph - N/A   Scattered Clouds
1:29 PM 81.7 °F - 51.1 °F 34% 30.10 in 10.0 mi West 5.8 mph - N/A   Clear
1:49 PM 81.1 °F - 50.9 °F 35% 30.09 in 10.0 mi WNW 5.8 mph - N/A   Clear
2:09 PM 81.9 °F - 51.3 °F 34% 30.09 in 10.0 mi Calm Calm - N/A   Clear
2:29 PM 83.1 °F - 50.9 °F 33% 30.08 in 10.0 mi WSW 8.1 mph - N/A   Scattered Clouds
2:49 PM 83.7 °F - 51.3 °F 32% 30.08 in 10.0 mi WSW 12.7 mph 18.4 mph N/A   Scattered Clouds
3:09 PM 83.7 °F - 52.0 °F 33% 30.08 in 10.0 mi SSW 11.5 mph - N/A   Scattered Clouds
3:29 PM 83.1 °F - 52.2 °F 34% 30.07 in 10.0 mi SW 5.8 mph 16.1 mph N/A   Scattered Clouds
3:49 PM 83.5 °F - 50.5 °F 32% 30.06 in 10.0 mi SW 10.4 mph 16.1 mph N/A   Clear
4:10 PM 83.8 °F - 51.8 °F 33% 30.06 in 10.0 mi SW 6.9 mph 16.1 mph N/A   Scattered Clouds
4:32 PM 83.5 °F - 51.4 °F 33% 30.05 in 10.0 mi SW 10.4 mph 16.1 mph N/A   Scattered Clouds
4:52 PM 84.2 °F - 51.6 °F 32% 30.05 in 10.0 mi SW 10.4 mph 16.1 mph N/A   Clear
5:12 PM 83.3 °F - 52.2 °F 34% 30.05 in 10.0 mi WSW 8.1 mph - N/A   Clear
5:32 PM 82.6 °F - 52.0 °F 35% 30.05 in 10.0 mi SW 11.5 mph - N/A   Clear
5:52 PM 82.2 °F - 52.9 °F 36% 30.05 in 10.0 mi SW 10.4 mph - N/A   Scattered Clouds
6:12 PM 82.2 °F 81.4 °F 54.1 °F 38% 30.05 in 10.0 mi WSW 8.1 mph - N/A   Scattered Clouds
6:33 PM 80.8 °F 80.6 °F 55.0 °F 41% 30.05 in 10.0 mi WSW 9.2 mph - N/A   Clear
6:48 PM 80.8 °F 80.7 °F 55.4 °F 42% 30.05 in 10.0 mi SW 8.1 mph - N/A   Scattered Clouds
7:10 PM 79.9 °F - 54.9 °F 42% 30.04 in 10.0 mi SW 4.6 mph - N/A   Scattered Clouds
7:30 PM 79.0 °F - 54.5 °F 43% 30.04 in 10.0 mi SW 8.1 mph - N/A   Clear
7:50 PM 77.9 °F - 54.0 °F 43% 30.04 in 10.0 mi WSW 5.8 mph - N/A   Clear
8:10 PM 75.9 °F - 54.5 °F 47% 30.05 in 10.0 mi WSW 5.8 mph - N/A   Clear
8:30 PM 73.6 °F - 54.9 °F 52% 30.05 in 10.0 mi WSW 4.6 mph - N/A   Clear
8:51 PM 72.1 °F - 55.4 °F 56% 30.05 in 10.0 mi WSW 4.6 mph - N/A   Clear
9:11 PM 69.3 °F - 55.8 °F 62% 30.06 in 10.0 mi Calm Calm - N/A   Clear
9:31 PM 66.6 °F - 57.2 °F 72% 30.06 in 10.0 mi WSW 3.5 mph - N/A   Clear
9:51 PM 64.6 °F - 57.0 °F 76% 30.07 in 10.0 mi WSW 3.5 mph - N/A   Clear
10:11 PM 61.9 °F - 57.0 °F 84% 30.07 in 10.0 mi Calm Calm - N/A   Clear
10:33 PM 60.8 °F - 56.8 °F 87% 30.07 in 10.0 mi Calm Calm - N/A   Clear
10:53 PM 60.3 °F - 56.7 °F 88% 30.07 in 10.0 mi Calm Calm - N/A   Clear
11:08 PM 59.7 °F - 56.3 °F 88% 30.07 in 10.0 mi Calm Calm - N/A   Clear
11:29 PM 61.3 °F - 57.7 °F 88% 30.07 in 10.0 mi Calm Calm - N/A   Clear
11:49 PM 59.0 °F - 56.7 °F 92% 30.07 in 7.0 mi Calm Calm - N/A   Clear